パンスターズ彗星

P/2012 F2 ( PanSTARRS )

English version
Home page
Updated on May 7, 2015

---------------------------------------------------------------------

・ プロフィール

発見日 2012年3月16日
発見光度 19.8等
発見者 Pan-STARRS 1 telescope (Haleakala)

・ 写真集

・ 軌道要素

Epoch 2013 Apr. 18.0 TT = JDT 2456400.5
T 2013 Apr.  9.98222 TT                                 MPC
q   2.8970922            (2000.0)            P               Q
n   0.06190719     Peri.   33.18511     -0.18132641     +0.96561662
a   6.3286148      Node   227.13452     -0.94853723     -0.22173542
e   0.5422233      Incl.   14.72432     -0.25961097     +0.13571271
P  15.9
From 97 observations 2012 Mar. 16-2013 Aug. 9, mean residual 0".6.

・ 星図

・ 光度変化

        m1 = 9.0 + 5 logΔ + 12.5 log r

---------------------------------------------------------------------

軌道要素はM.P.E.C. 2013-R59に掲載されたものです。
星図はステラナビゲータ Ver.8 (アストロアーツ) で作成したものです。
光度グラフはComet for Windowsで作成したものです。

---------------------------------------------------------------------

Copyright(C) Seiichi Yoshida (comet@aerith.net). All rights reserved.